History for KNYNEWYO899

Manhattan West, New York City, NY — Current Conditions
Daily Summary for April 26, 2018
  Current: High: Low: Average:
Temperature: 54.9°F 56.6°F 53.5°F 55.0°F
Dew Point: 54.0°F 55.0°F 53.0°F 54.3°F
Humidity: 100% 100% 97% 100%
Wind Speed: 5.0mph 8.0mph - 1.7mph
Wind Gust: 11.0mph 17.0mph - -
Wind: North - - WNW
Pressure: 29.66in 29.69in 29.66in -
Precipitation: 1.08in      
Statistics for the rest of the month
    High: Low: Average:
Temperature:   77.4°F 33.4°F 49.7°F
Dew Point:   56.0°F 9.0°F 34.3°F
Humidity:   100.0% 15.0% 62.3%
Wind Speed:   36.0mph from the East - 6.4mph
Wind Gust:   55.0mph from the ESE - -
Wind:   - - SSE
Pressure:   30.58in 29.47in -
Precipitation:   2.54in    
KNYNEWYO899 Weather Graph
Tabular Data for April 26, 2018
Time Temp. Dew Point Pressure Wind Gust Humidity Rainfall
00:08 54.0°F 54.0°F 29.69in 3.0mph 100% 0.00in
00:18 53.8°F 53.0°F 29.68in 1.0mph 100% 0.00in
00:28 53.5°F 53.0°F 29.68in 2.0mph 100% 0.00in
00:33 53.5°F 53.0°F 29.67in 1.0mph 100% 0.00in
00:43 53.8°F 53.0°F 29.68in 2.0mph 100% 0.00in
00:48 53.9°F 53.0°F 29.68in 2.0mph 100% 0.00in
00:58 54.1°F 54.0°F 29.68in 1.0mph 100% 0.00in
01:08 54.7°F 54.0°F 29.68in 3.0mph 100% 0.01in
01:18 54.4°F 54.0°F 29.68in 3.0mph 100% 0.02in
01:23 54.8°F 54.0°F 29.68in 6.0mph 100% 0.04in
01:28 55.0°F 55.0°F 29.69in 7.0mph 100% 0.05in
01:33 55.0°F 55.0°F 29.69in 7.0mph 100% 0.08in
01:43 55.1°F 55.0°F 29.69in 4.0mph 100% 0.15in
01:48 55.1°F 55.0°F 29.69in 6.0mph 100% 0.19in
01:53 55.1°F 55.0°F 29.69in 6.0mph 100% 0.23in
02:03 55.3°F 55.0°F 29.69in 2.0mph 100% 0.32in
02:13 56.5°F 55.0°F 29.68in 0.0mph 97% 0.39in
02:23 56.6°F 55.0°F 29.68in 0.0mph 97% 0.37in
02:28 56.6°F 55.0°F 29.68in 0.0mph 97% 0.35in
02:38 55.0°F 55.0°F 29.68in 10.0mph 100% 0.43in
02:43 55.0°F 55.0°F 29.68in 10.0mph 100% 0.48in
02:53 54.9°F 54.0°F 29.67in 10.0mph 100% 0.54in
03:03 54.7°F 54.0°F 29.67in 16.0mph 100% 0.54in
03:08 54.8°F 54.0°F 29.67in 12.0mph 100% 0.52in
03:13 54.9°F 54.0°F 29.67in 13.0mph 100% 0.56in
03:23 55.1°F 55.0°F 29.67in 17.0mph 100% 0.61in
03:28 55.1°F 55.0°F 29.67in 17.0mph 100% 0.63in
03:38 54.9°F 54.0°F 29.66in 11.0mph 100% 0.51in
Comma Delimited File
Powered by Weather Underground, Inc.